#timestamp,LO_Frequency,Hit 
1504767615.1,286046995.6,N
1504767635.8,286046998.9,N
1504767655.7,286046997.0,N
1504767675.5,286046996.4,N
1504767695.3,286046999.4,N
1504767715.2,286047002.3,N
1504767735.9,286046998.3,N
1504767755.7,286046998.3,N
1504767775.6,286047001.1,N
1504767795.4,286046997.8,N
1504767815.2,286046998.2,N
1504767835.0,286047000.0,N
1504767836.0,286047000.0,N
1504767855.8,286046998.3,N
1504767875.6,286046999.0,N
1504767895.4,286046997.2,N
1504767915.3,286046995.2,N
1504767935.1,286046998.0,N
1504767955.8,286046998.9,N
1504767975.7,286046996.6,N
1504767995.5,286046993.4,P
1504768015.3,286046997.7,N
1504768035.2,286046996.5,N
1504768055.0,286046998.3,N
1504768055.9,286046998.3,N
1504768075.7,286047001.0,N
1504768095.6,286046999.4,N
1504768115.4,286047001.2,N
1504768135.2,286046997.7,N
1504768155.1,286046998.7,N
1504768156.0,286046998.7,N
1504768175.8,286046998.1,N
1504768195.6,286046997.4,N
1504768215.5,286047001.1,N
1504768235.3,286046997.8,N
1504768255.1,286047000.8,N
1504768275.9,286047001.6,N
1504768295.7,286046998.1,N
1504768315.5,286046999.3,N
1504768335.4,286046993.5,P
1504768355.2,286046999.1,N
1504768375.0,286046998.6,N
1504768375.9,286046998.6,N
1504768395.8,286047001.7,N
1504768415.6,286047004.7,N
1504768435.4,286047004.0,N
1504768455.3,286047001.8,N
1504768475.1,286047001.0,N
1504768476.0,286047001.0,N
1504768495.8,286047002.7,N
1504768515.7,286046996.7,N
1504768535.5,286047000.5,N
1504768555.3,286046999.3,N
1504768575.1,286046994.3,N
1504768595.9,286046993.5,N
1504768615.7,286047000.7,N
1504768635.5,286046997.2,N
1504768655.4,286047000.9,N
1504768675.2,286046996.5,N
1504768695.0,286046996.9,N
1504768695.9,286046996.9,N
1504768715.8,286046996.3,N
1504768735.6,286046998.0,N
1504768755.4,286046992.0,N
1504768775.3,286046997.3,N
1504768795.1,286047000.9,N
1504768796.0,286047000.9,N
1504768815.8,286046995.0,N
1504768835.7,286046997.7,N
1504768855.5,286046995.4,N
1504768875.3,286046999.1,N
1504768895.2,286046998.9,N
1504768915.9,286047000.6,N
1504768935.7,286046996.6,N
1504768955.6,286046994.9,N
1504768975.4,286046994.2,N
1504768995.2,286046994.8,N
1504769015.0,286046995.5,N
1504769015.9,286046995.5,N
1504769035.8,286046993.3,N
1504769055.6,286046997.2,N
1504769075.4,286046996.3,N
1504769095.3,286046993.5,N
1504769115.1,286046994.5,N
1504769135.8,286046996.6,N
1504769155.7,286046997.2,N
1504769175.5,286046995.4,N
1504769195.3,286046996.8,N
1504769215.2,286046993.4,P
1504769235.0,286047000.1,N
1504769235.9,286047000.1,N
1504769255.7,286047002.4,N
1504769275.6,286047002.5,N
1504769295.4,286046996.7,N
1504769315.2,286046997.6,N
1504769335.1,286046999.3,N
1504769336.0,286046999.3,N
1504769355.8,286047000.1,N
1504769375.6,286046998.1,N
1504769395.5,286046998.5,N
1504769415.3,286046998.9,N
1504769435.1,286046997.4,N
1504769455.9,286046998.5,N
1504769475.7,286047001.1,N
1504769495.5,286047001.9,N
1504769515.3,286047003.9,N
1504769535.2,286047002.4,N
1504769555.0,286047003.5,N
1504769555.9,286047003.5,N
1504769575.7,286047003.8,N
1504769595.6,286047005.9,N
1504769615.4,286047002.0,N
1504769635.2,286047001.3,N
1504769655.1,286047004.3,N
1504769656.0,286047004.3,N
1504769675.8,286047000.4,N
1504769695.6,286046998.2,N
1504769715.5,286047000.3,N
1504769735.3,286047003.5,N
1504769755.1,286047001.7,N
1504769775.9,286047005.0,N
1504769795.7,286047000.1,N
1504769815.5,286047002.8,N
1504769835.4,286047001.3,N
1504769855.2,286046996.9,N
1504769875.0,286047001.3,N
1504769875.9,286047001.3,N
1504769895.8,286047000.1,N
1504769915.6,286046998.5,N
1504769935.4,286047000.5,N
1504769955.3,286046997.6,N
1504769975.1,286046996.0,N
1504769976.0,286046996.0,N
1504769995.8,286046997.3,N
1504770015.7,286046997.3,N
1504770035.5,286047000.9,N
1504770055.3,286047002.1,N
1504770075.2,286047000.6,N
1504770095.9,286047000.2,N
1504770115.7,286047005.7,N
1504770135.6,286047006.0,N
1504770155.4,286047006.0,N
1504770175.2,286047002.2,N
1504770195.1,286046998.1,N
1504770196.0,286046998.1,N
1504770215.8,286046999.4,N
1504770235.6,286047000.3,N
1504770255.5,286046998.3,N
1504770275.3,286046998.6,N
1504770295.1,286046997.6,N
1504770315.8,286046997.7,N
1504770335.7,286046998.1,N
1504770355.5,286047002.1,N
1504770375.3,286047002.9,N
1504770395.2,286047001.4,N
1504770415.0,286047004.1,N
1504770415.9,286047004.1,N
1504770435.8,286047001.3,N
1504770455.6,286047001.6,N
1504770475.4,286047000.3,N
1504770495.3,286046997.7,N
1504770515.1,286046993.5,N
1504770535.8,286046995.9,N
1504770555.7,286046992.5,N
1504770575.5,286046991.2,N
1504770595.3,286046992.0,N
1504770615.2,286046994.4,N
1504770635.9,286046993.5,N
1504770655.7,286046994.5,N
1504770675.6,286046997.9,N
1504770695.4,286046995.9,N
1504770715.2,286046997.3,N
1504770735.1,286046995.6,N
1504770736.0,286046995.6,N
1504770755.8,286046998.4,N
1504770775.6,286046998.3,N
1504770795.5,286047004.0,N
1504770815.3,286047005.2,N
1504770835.1,286047005.7,N
1504770855.9,286047005.1,N
1504770875.7,286047006.6,N
1504770895.5,286047006.9,N
1504770915.4,286047006.1,N
1504770935.2,286047010.4,N
1504770955.0,286047005.1,N
1504770955.9,286047005.1,N
1504770975.8,286047005.3,N
1504770995.6,286047004.5,N
1504771015.4,286047005.4,N
1504771035.3,286047008.7,N
1504771055.1,286047005.2,N
1504771056.0,286047005.2,N
1504771075.8,286047004.5,N
1504771095.6,286047004.9,N
1504771115.5,286047006.3,N
1504771135.3,286047005.6,N
1504771155.1,286047001.5,N
1504771175.9,286047004.9,N
1504771195.7,286047007.0,N
